Weather History for CWZA - April, 2013

Change the Weather History Date:

Wednesday, April 24, 2013

  Actual Average Record
Temperature  
Mean Temperature 56 °F -  
Max Temperature 67 °F - - ()
Min Temperature 45 °F - - ()
Degree Days  
Heating Degree Days 9    
Growing Degree Days 6 (Base 50)    
Moisture  
Dew Point 37 °F    
Average Humidity 52    
Maximum Humidity 81    
Minimum Humidity 27    
Precipitation  
Precipitation 0.00 in - - ()
Sea Level Pressure  
Sea Level Pressure 30.23 in    
Wind  
Wind Speed 7 mph ()    
Max Wind Speed 17 mph    
Max Gust Speed 22 mph    
T = Trace of Precipitation, MM = Missing Value Source: Averaged Metar Reports

Daily Weather History Graph

Daily Weather History Graph

Search for Another Location

Airport or City:

Trip Planner

Search our weather history database for the weather conditions in past years. The results will help you decide how hot, cold, wet, or windy it might be!

Date:

Astronomy

Apr. 24, 2013 Rise Set
Actual Time 5:57 AM PDT 8:13 PM PDT
Civil Twilight 5:22 AM PDT 8:48 PM PDT
Nautical Twilight 4:39 AM PDT 9:32 PM PDT
Astronomical Twilight 3:49 AM PDT 10:22 PM PDT
Moon 7:20 PM PDT (4/24) 5:10 AM PDT (4/24)
Length of Visible Light 15h 26m
Length of Day
14h 16m
Waxing Gibbous, 98% of the Moon is Illuminated
Apr 24
Waxing Gibbous
Apr 25
Full
May 2
Last Quarter
May 9
New
May 17
First Quarter

Hourly Weather History & Observations

Time (PDT) Temp. Windchill Dew Point Humidity Pressure Visibility Wind Dir Wind Speed Gust Speed Precip Events Conditions
12:00 AM 51.8 °F - 36.3 °F 56% 30.33 in - NE 16.1 mph 21.9 mph N/A   Unknown
1:00 AM 50.9 °F - 35.8 °F 56% 30.33 in - NE 17.3 mph - N/A   Unknown
2:00 AM 48.7 °F - 35.6 °F 60% 30.35 in - North 8.1 mph - N/A   Unknown
3:00 AM 48.4 °F - 35.4 °F 61% 30.34 in - NNE 11.5 mph 18.4 mph N/A   Unknown
4:00 AM 46.9 °F - 35.2 °F 64% 30.36 in - North 5.8 mph - N/A   Unknown
5:00 AM 46 °F - 35 °F 56% 30.34 in - NE 13.8 mph - -  
5:00 AM 46.2 °F 40.1 °F 35.2 °F 66% 30.34 in - NE 13.8 mph 20.7 mph N/A   Unknown
6:00 AM 46.2 °F 40.5 °F 34.7 °F 64% 30.34 in - NE 12.7 mph 19.6 mph N/A   Unknown
7:00 AM 45.9 °F 44.6 °F 34.7 °F 65% 30.34 in - NNE 3.5 mph - N/A   Unknown
8:00 AM 48.9 °F - 35.6 °F 60% 30.34 in - NNE 2.3 mph - N/A   Unknown
10:00 AM 54.9 °F - 34.3 °F 46% 30.31 in - East 3.5 mph - N/A   Unknown
11:00 AM 58 °F - 37 °F 34% 30.29 in - SSW 2.3 mph - -  
11:00 AM 57.9 °F - 37.2 °F 46% 30.29 in - SSW 2.3 mph - N/A   Unknown
12:00 PM 61.0 °F - 39.0 °F 44% 30.26 in - South 2.3 mph - N/A   Unknown
1:00 PM 63.0 °F - 39.6 °F 42% 30.25 in - SW 3.5 mph - N/A   Unknown
2:00 PM 64.6 °F - 42.3 °F 44% 30.21 in - SW 6.9 mph - N/A   Unknown
3:00 PM 67.1 °F - 37.2 °F 33% 30.19 in - WSW 4.6 mph - N/A   Unknown
4:00 PM 66.4 °F - 40.1 °F 38% 30.15 in - SW 6.9 mph - N/A   Unknown
5:00 PM 65 °F - 39 °F 27% 30.12 in - SW 6.9 mph - -  
5:00 PM 64.6 °F - 38.8 °F 39% 30.12 in - SW 6.9 mph - N/A   Unknown
6:00 PM 64.8 °F - 37.2 °F 36% 30.11 in - SW 8.1 mph - N/A   Unknown
8:00 PM 57.6 °F - 37.0 °F 46% 30.08 in - ESE 2.3 mph - N/A   Unknown
9:00 PM 53.4 °F - 38.1 °F 56% 30.08 in - Calm Calm - N/A   Unknown
10:00 PM 49.8 °F - 39.4 °F 67% 30.08 in - NNW 1.2 mph - N/A   Unknown
11:00 PM 46 °F - 41 °F 75% 30.07 in - Calm Calm - -  
11:00 PM 46.2 °F - 40.6 °F 81% 30.07 in - Calm Calm - N/A   Unknown